Weather in Belushya Guba

Russia / Arkhangel'skaya Oblast'     71°32′15″N   52°20′35″E
temp.,
°C
wind,
m/s
gust,
m/s
humid.,
%
clouds,
%
prec.,
mm/h
press.,
hPa
HPBL,
m
16 april, fri
fri1600:00−6ssw5890100 0.4 1012108
03:00−7nnw12178999 0.8 1013499
06:00−10nnw11158540 0.0 1018609
09:00−10nnw610835 0.0 1021581
12:00−9nnw4779100 0.0 1023529
15:00−9e1176100 0.0 1022297
18:00−9se4688100 0.0 1020347
21:00−11ese61089100 0.0 1019348
17 april, sat
sat1700:00−12ese5892100 0.1 1019339
03:00−13ese6993100 0.3 1019270
06:00−13ese688877 0.1 1020238
09:00−12e347687 0.2 1022207
12:00−9nnw24733 0.0 1025284
15:00−9nnw714814 0.0 1027464
18:00−10nnw510875 0.0 1029256
21:00−13nnw479645 0.0 103183
18 april, sun
sun1800:00−13nnw48929 0.0 1033109
03:00−14nnw369424 0.0 103466
06:00−12nw358918 0.0 103479
09:00−7wnw2482100 0.0 1035116
12:00−4wsw3577100 0.0 1034330
15:00−2wsw71077100 0.0 1032713
18:00−4ssw81596100 0.7 1029674
21:00−2wsw111997100 4.0 1024644
19 april, mon
mon1900:000w101898100 2.9 1021650
03:00+1wnw81598100 3.7 1021500
06:00+1w61199100 2.0 1020416
09:00+1w81598100 3.5 1019369
12:00+1w81689100 0.2 1019381
15:00+1w8168771 0.2 1018382
18:00+1w8168626 0.0 1017316
21:000w8158677 0.0 1016313
20 april, tue
tue2000:00+1wnw81492100 0.0 1016359
03:00+1w61295100 0.0 1017307
06:00+1wnw61297100 0.1 1018290
09:00+1w4899100 0.1 1020179
12:00+1wsw48100100 0.0 1020160
15:00+1w369857 0.0 1021110
18:000sw349512 0.0 102152
21:00−3ssw359838 0.0 102166